Year,Month,Day,Hour,Minute,Value (Times are PST for temperature in C)
2012,12,07,00,00,-10.20
2012,12,07,00,01,-10.20
2012,12,07,00,02,-10.20
2012,12,07,00,03,-10.10
2012,12,07,00,04,-10.10
2012,12,07,00,05,-10.10
2012,12,07,00,06,-10.10
2012,12,07,00,07,-10.10
2012,12,07,00,08,-10.10
2012,12,07,00,09,-10.10
2012,12,07,00,10,-10.10
2012,12,07,00,11,-10.10
2012,12,07,00,12,-10.10
2012,12,07,00,13,-10.10
2012,12,07,00,14,-10.00
2012,12,07,00,15,-10.00
2012,12,07,00,16,-10.00
2012,12,07,00,17,-10.00
2012,12,07,00,18,-10.00
2012,12,07,00,19,-10.00
2012,12,07,00,20,-10.10
2012,12,07,00,21,-10.00
2012,12,07,00,22,-10.10
2012,12,07,00,23,-10.10
2012,12,07,00,24,-10.10
2012,12,07,00,25,-10.10
2012,12,07,00,26,-10.10
2012,12,07,00,27,-10.00
2012,12,07,00,28,-10.10
2012,12,07,00,29,-10.00
2012,12,07,00,30,-10.00
2012,12,07,00,31,-10.10
2012,12,07,00,32,-10.00
2012,12,07,00,33,-10.10
2012,12,07,00,34,-10.10
2012,12,07,00,35,-10.10
2012,12,07,00,36,-10.10
2012,12,07,00,37,-10.10
2012,12,07,00,38,-10.10
2012,12,07,00,39,-10.10
2012,12,07,00,40,-10.10
2012,12,07,00,41,-10.10
2012,12,07,00,42,-10.10
2012,12,07,00,43,-10.10
2012,12,07,00,44,-10.10
2012,12,07,00,45,-10.10
2012,12,07,00,46,-10.10
2012,12,07,00,47,-10.10
2012,12,07,00,48,-10.10
2012,12,07,00,49,-10.10
2012,12,07,00,50,-10.10
2012,12,07,00,51,-10.10
2012,12,07,00,52,-10.10
2012,12,07,00,53,-10.10
2012,12,07,00,54,-10.10
2012,12,07,00,55,-10.10
2012,12,07,00,56,-10.10
2012,12,07,00,57,-10.10
2012,12,07,00,58,-10.00
2012,12,07,00,59,-10.00
2012,12,07,01,00,-10.00
2012,12,07,01,01,-10.00
2012,12,07,01,02,-10.00
2012,12,07,01,03,-10.00
2012,12,07,01,04,-10.00
2012,12,07,01,05,-10.00
2012,12,07,01,06,-10.00
2012,12,07,01,07,-10.00
2012,12,07,01,08,-10.00
2012,12,07,01,09,-10.00
2012,12,07,01,10,-10.00
2012,12,07,01,11,-10.00
2012,12,07,01,12,-10.00
2012,12,07,01,13,-10.00
2012,12,07,01,14,-10.00
2012,12,07,01,15,-10.00
2012,12,07,01,16,-10.00
2012,12,07,01,17,-10.00
2012,12,07,01,18,-9.90
2012,12,07,01,19,-9.90
2012,12,07,01,20,-10.00
2012,12,07,01,21,-10.00
2012,12,07,01,22,-10.00
2012,12,07,01,23,-10.00
2012,12,07,01,24,-10.00
2012,12,07,01,25,-10.00
2012,12,07,01,26,-10.00
2012,12,07,01,27,-10.00
2012,12,07,01,28,-10.00
2012,12,07,01,29,-10.00
2012,12,07,01,30,-10.00
2012,12,07,01,31,-10.00
2012,12,07,01,32,-10.00
2012,12,07,01,33,-10.00
2012,12,07,01,34,-10.00
2012,12,07,01,35,-10.00
2012,12,07,01,36,-10.00
2012,12,07,01,37,-10.00
2012,12,07,01,38,-10.00
2012,12,07,01,39,-10.00
2012,12,07,01,40,-10.00
2012,12,07,01,41,-10.00
2012,12,07,01,42,-10.00
2012,12,07,01,43,-10.00
2012,12,07,01,44,-10.00
2012,12,07,01,45,-9.90
2012,12,07,01,46,-9.90
2012,12,07,01,47,-9.90
2012,12,07,01,48,-9.90
2012,12,07,01,49,-9.90
2012,12,07,01,50,-9.90
2012,12,07,01,51,-9.90
2012,12,07,01,52,-9.90
2012,12,07,01,53,-9.90
2012,12,07,01,54,-9.90
2012,12,07,01,55,-9.90
2012,12,07,01,56,-9.90
2012,12,07,01,57,-9.90
2012,12,07,01,58,-9.90
2012,12,07,01,59,-9.90
2012,12,07,02,00,-9.90
2012,12,07,02,01,-9.90
2012,12,07,02,02,-9.90
2012,12,07,02,03,-9.90
2012,12,07,02,04,-9.90
2012,12,07,02,05,-9.90
2012,12,07,02,06,-9.90
2012,12,07,02,07,-9.90
2012,12,07,02,08,-9.90
2012,12,07,02,09,-9.90
2012,12,07,02,10,-9.90
2012,12,07,02,11,-9.90
2012,12,07,02,12,-10.00
2012,12,07,02,13,-10.00
2012,12,07,02,14,-10.00
2012,12,07,02,15,-10.00
2012,12,07,02,16,-10.00
2012,12,07,02,17,-10.00
2012,12,07,02,18,-10.00
2012,12,07,02,19,-10.00
2012,12,07,02,20,-10.00
2012,12,07,02,21,-10.00
2012,12,07,02,22,-10.00
2012,12,07,02,23,-10.00
2012,12,07,02,24,-10.00
2012,12,07,02,25,-9.90
2012,12,07,02,26,-9.90
2012,12,07,02,27,-9.90
2012,12,07,02,28,-9.90
2012,12,07,02,29,-9.90
2012,12,07,02,30,-9.90
2012,12,07,02,31,-9.90
2012,12,07,02,32,-9.90
2012,12,07,02,33,-9.90
2012,12,07,02,34,-9.90
2012,12,07,02,35,-9.90
2012,12,07,02,36,-9.90
2012,12,07,02,37,-9.90
2012,12,07,02,38,-9.90
2012,12,07,02,39,-9.90
2012,12,07,02,40,-9.90
2012,12,07,02,41,-9.90
2012,12,07,02,42,-9.90
2012,12,07,02,43,-9.90
2012,12,07,02,44,-9.90
2012,12,07,02,45,-9.90
2012,12,07,02,46,-10.00
2012,12,07,02,47,-10.00
2012,12,07,02,48,-10.00
2012,12,07,02,49,-10.00
2012,12,07,02,50,-10.00
2012,12,07,02,51,-10.00
2012,12,07,02,52,-10.00
2012,12,07,02,53,-10.00
2012,12,07,02,54,-10.10
2012,12,07,02,55,-10.00
2012,12,07,02,56,-10.10
2012,12,07,02,57,-10.10
2012,12,07,02,58,-10.10
2012,12,07,02,59,-10.10
2012,12,07,03,00,-10.10
2012,12,07,03,01,-10.10
2012,12,07,03,02,-10.10
2012,12,07,03,03,-10.10
2012,12,07,03,04,-10.10
2012,12,07,03,05,-10.10
2012,12,07,03,06,-10.10
2012,12,07,03,07,-10.00
2012,12,07,03,08,-10.00
2012,12,07,03,09,-10.00
2012,12,07,03,10,-10.00
2012,12,07,03,11,-10.00
2012,12,07,03,12,-10.00
2012,12,07,03,13,-10.00
2012,12,07,03,14,-10.00
2012,12,07,03,15,-9.90
2012,12,07,03,16,-9.90
2012,12,07,03,17,-9.90
2012,12,07,03,18,-9.90
2012,12,07,03,19,-9.90
2012,12,07,03,20,-9.90
2012,12,07,03,21,-9.90
2012,12,07,03,22,-9.90
2012,12,07,03,23,-9.90
2012,12,07,03,24,-9.90
2012,12,07,03,25,-9.90
2012,12,07,03,26,-9.90
2012,12,07,03,27,-9.90
2012,12,07,03,28,-9.90
2012,12,07,03,29,-9.90
2012,12,07,03,30,-9.80
2012,12,07,03,31,-9.80
2012,12,07,03,32,-9.80
2012,12,07,03,33,-9.80
2012,12,07,03,34,-9.80
2012,12,07,03,35,-9.80
2012,12,07,03,36,-9.80
2012,12,07,03,37,-9.80
2012,12,07,03,38,-9.80
2012,12,07,03,39,-9.70
2012,12,07,03,40,-9.70
2012,12,07,03,41,-9.70
2012,12,07,03,42,-9.70
2012,12,07,03,43,-9.70
2012,12,07,03,44,-9.70
2012,12,07,03,45,-9.70
2012,12,07,03,46,-9.70
2012,12,07,03,47,-9.70
2012,12,07,03,48,-9.70
2012,12,07,03,49,-9.70
2012,12,07,03,50,-9.70
2012,12,07,03,51,-9.70
2012,12,07,03,52,-9.70
2012,12,07,03,53,-9.70
2012,12,07,03,54,-9.70
2012,12,07,03,55,-9.70
2012,12,07,03,56,-9.70
2012,12,07,03,57,-9.70
2012,12,07,03,58,-9.70
2012,12,07,03,59,-9.70
2012,12,07,04,00,-9.70
2012,12,07,04,01,-9.70
2012,12,07,04,02,-9.70
2012,12,07,04,03,-9.70
2012,12,07,04,04,-9.70
2012,12,07,04,05,-9.70
2012,12,07,04,06,-9.70
2012,12,07,04,07,-9.70
2012,12,07,04,08,-9.70
2012,12,07,04,09,-9.70
2012,12,07,04,10,-9.70
2012,12,07,04,11,-9.70
2012,12,07,04,12,-9.70
2012,12,07,04,13,-9.70
2012,12,07,04,14,-9.70
2012,12,07,04,15,-9.70
2012,12,07,04,16,-9.70
2012,12,07,04,17,-9.70
2012,12,07,04,18,-9.70
2012,12,07,04,19,-9.70
2012,12,07,04,20,-9.70
2012,12,07,04,21,-9.70
2012,12,07,04,22,-9.70
2012,12,07,04,23,-9.70
2012,12,07,04,24,-9.70
2012,12,07,04,25,-9.70
2012,12,07,04,26,-9.70
2012,12,07,04,27,-9.70
2012,12,07,04,28,-9.80
2012,12,07,04,29,-9.80
2012,12,07,04,30,-9.70
2012,12,07,04,31,-9.70
2012,12,07,04,32,-9.80
2012,12,07,04,33,-9.70
2012,12,07,04,34,-9.80
2012,12,07,04,35,-9.70
2012,12,07,04,36,-9.80
2012,12,07,04,37,-9.70
2012,12,07,04,38,-9.80
2012,12,07,04,39,-9.70
2012,12,07,04,40,-9.80
2012,12,07,04,41,-9.80
2012,12,07,04,42,-9.80
2012,12,07,04,43,-9.80
2012,12,07,04,44,-9.80
2012,12,07,04,45,-9.80
2012,12,07,04,46,-9.70
2012,12,07,04,47,-9.70
2012,12,07,04,48,-9.70
2012,12,07,04,49,-9.70
2012,12,07,04,50,-9.70
2012,12,07,04,51,-9.70
2012,12,07,04,52,-9.70
2012,12,07,04,53,-9.70
2012,12,07,04,54,-9.70
2012,12,07,04,55,-9.70
2012,12,07,04,56,-9.70
2012,12,07,04,57,-9.70
2012,12,07,04,58,-9.70
2012,12,07,04,59,-9.70
2012,12,07,05,00,-9.70
2012,12,07,05,01,-9.70
2012,12,07,05,02,-9.70
2012,12,07,05,03,-9.70
2012,12,07,05,04,-9.70
2012,12,07,05,05,-9.70
2012,12,07,05,06,-9.70
2012,12,07,05,07,-9.70
2012,12,07,05,08,-9.70
2012,12,07,05,09,-9.70
2012,12,07,05,10,-9.70
2012,12,07,05,11,-9.70
2012,12,07,05,12,-9.70
2012,12,07,05,13,-9.70
2012,12,07,05,14,-9.70
2012,12,07,05,15,-9.70
2012,12,07,05,16,-9.60
2012,12,07,05,17,-9.60
2012,12,07,05,18,-9.60
2012,12,07,05,19,-9.60
2012,12,07,05,20,-9.50
2012,12,07,05,21,-9.50
2012,12,07,05,22,-9.50
2012,12,07,05,23,-9.50
2012,12,07,05,24,-9.50
2012,12,07,05,25,-9.50
2012,12,07,05,26,-9.50
2012,12,07,05,27,-9.50
2012,12,07,05,28,-9.50
2012,12,07,05,29,-9.40
2012,12,07,05,30,-9.40
2012,12,07,05,31,-9.40
2012,12,07,05,32,-9.40
2012,12,07,05,33,-9.40
2012,12,07,05,34,-9.40
2012,12,07,05,35,-9.40
2012,12,07,05,36,-9.30
2012,12,07,05,37,-9.30
2012,12,07,05,38,-9.30
2012,12,07,05,39,-9.30
2012,12,07,05,40,-9.30
2012,12,07,05,41,-9.30
2012,12,07,05,42,-9.20
2012,12,07,05,43,-9.20
2012,12,07,05,44,-9.20
2012,12,07,05,45,-9.20
2012,12,07,05,46,-9.20
2012,12,07,05,47,-9.20
2012,12,07,05,48,-9.20
2012,12,07,05,49,-9.20
2012,12,07,05,50,-9.20
2012,12,07,05,51,-9.20
2012,12,07,05,52,-9.20
2012,12,07,05,53,-9.20
2012,12,07,05,54,-9.20
2012,12,07,05,55,-9.20
2012,12,07,05,56,-9.20
2012,12,07,05,57,-9.20
2012,12,07,05,58,-9.20
2012,12,07,05,59,-9.20
2012,12,07,06,00,-9.20
2012,12,07,06,01,-9.20
2012,12,07,06,02,-9.20
2012,12,07,06,03,-9.20
2012,12,07,06,04,-9.20
2012,12,07,06,05,-9.30
2012,12,07,06,06,-9.30
2012,12,07,06,07,-9.30
2012,12,07,06,08,-9.30
2012,12,07,06,09,-9.30
2012,12,07,06,10,-9.30
2012,12,07,06,11,-9.30
2012,12,07,06,12,-9.30
2012,12,07,06,13,-9.30
2012,12,07,06,14,-9.30
2012,12,07,06,15,-9.30
2012,12,07,06,16,-9.30
2012,12,07,06,17,-9.30
2012,12,07,06,18,-9.30
2012,12,07,06,19,-9.30
2012,12,07,06,20,-9.30
2012,12,07,06,21,-9.30
2012,12,07,06,22,-9.30
2012,12,07,06,23,-9.30
2012,12,07,06,24,-9.30
2012,12,07,06,25,-9.30
2012,12,07,06,26,-9.30
2012,12,07,06,27,-9.30
2012,12,07,06,28,-9.30
2012,12,07,06,29,-9.30
2012,12,07,06,30,-9.30
2012,12,07,06,31,-9.30
2012,12,07,06,32,-9.30
2012,12,07,06,33,-9.30
2012,12,07,06,34,-9.30
2012,12,07,06,35,-9.30
2012,12,07,06,36,-9.30
2012,12,07,06,37,-9.30
2012,12,07,06,38,-9.30
2012,12,07,06,39,-9.30
2012,12,07,06,40,-9.30
2012,12,07,06,41,-9.30
2012,12,07,06,42,-9.30
2012,12,07,06,43,-9.30
2012,12,07,06,44,-9.30
2012,12,07,06,45,-9.30
2012,12,07,06,46,-9.30
2012,12,07,06,47,-9.30
2012,12,07,06,48,-9.20
2012,12,07,06,49,-9.20
2012,12,07,06,50,-9.20
2012,12,07,06,51,-9.20
2012,12,07,06,52,-9.20
2012,12,07,06,53,-9.20
2012,12,07,06,54,-9.20
2012,12,07,06,55,-9.20
2012,12,07,06,56,-9.20
2012,12,07,06,57,-9.10
2012,12,07,06,58,-9.10
2012,12,07,06,59,-9.10
2012,12,07,07,00,-9.10
2012,12,07,07,01,-9.10
2012,12,07,07,02,-9.10
2012,12,07,07,03,-9.10
2012,12,07,07,04,-9.10
2012,12,07,07,05,-9.10
2012,12,07,07,06,-9.10
2012,12,07,07,07,-9.00
2012,12,07,07,08,-9.00
2012,12,07,07,09,-9.00
2012,12,07,07,10,-9.00
2012,12,07,07,11,-9.00
2012,12,07,07,12,-9.00
2012,12,07,07,13,-9.00
2012,12,07,07,14,-9.00
2012,12,07,07,15,-9.00
2012,12,07,07,16,-9.10
2012,12,07,07,17,-9.00
2012,12,07,07,18,-9.00
2012,12,07,07,19,-9.00
2012,12,07,07,20,-9.00
2012,12,07,07,21,-9.00
2012,12,07,07,22,-9.00
2012,12,07,07,23,-9.00
2012,12,07,07,24,-9.00
2012,12,07,07,25,-9.00
2012,12,07,07,26,-9.00
2012,12,07,07,27,-9.00
2012,12,07,07,28,-9.00
2012,12,07,07,29,-9.00
2012,12,07,07,30,-8.90
2012,12,07,07,31,-8.90
2012,12,07,07,32,-8.90
2012,12,07,07,33,-8.90
2012,12,07,07,34,-8.90
2012,12,07,07,35,-8.90
2012,12,07,07,36,-8.90
2012,12,07,07,37,-8.90
2012,12,07,07,38,-8.90
2012,12,07,07,39,-8.90
2012,12,07,07,40,-8.90
2012,12,07,07,41,-8.90
2012,12,07,07,42,-8.90
2012,12,07,07,43,-9.00
2012,12,07,07,44,-8.90
2012,12,07,07,45,-9.00
2012,12,07,07,46,-9.00
2012,12,07,07,47,-9.00
2012,12,07,07,48,-9.00
2012,12,07,07,49,-9.00
2012,12,07,07,50,-9.00
2012,12,07,07,51,-9.00
2012,12,07,07,52,-9.00
2012,12,07,07,53,-9.00
2012,12,07,07,54,-9.00
2012,12,07,07,55,-8.90
2012,12,07,07,56,-8.90
2012,12,07,07,57,-8.90
2012,12,07,07,58,-8.90
2012,12,07,07,59,-8.90
2012,12,07,08,00,-8.90
2012,12,07,08,01,-8.90
2012,12,07,08,02,-8.90
2012,12,07,08,03,-8.90
2012,12,07,08,04,-8.90
2012,12,07,08,05,-8.90
2012,12,07,08,06,-8.90
2012,12,07,08,07,-8.80
2012,12,07,08,08,-8.80
2012,12,07,08,09,-8.80
2012,12,07,08,10,-8.80
2012,12,07,08,11,-8.80
2012,12,07,08,12,-8.80
2012,12,07,08,13,-8.80
2012,12,07,08,14,-8.80
2012,12,07,08,15,-8.80
2012,12,07,08,16,-8.80
2012,12,07,08,17,-8.80
2012,12,07,08,18,-8.80
2012,12,07,08,19,-8.80
2012,12,07,08,20,-8.80
2012,12,07,08,21,-8.80
2012,12,07,08,22,-8.80
2012,12,07,08,23,-8.80
2012,12,07,08,24,-8.80
2012,12,07,08,25,-8.80
2012,12,07,08,26,-8.80
2012,12,07,08,27,-8.70
2012,12,07,08,28,-8.70
2012,12,07,08,29,-8.70
2012,12,07,08,30,-8.70
2012,12,07,08,31,-8.70
2012,12,07,08,32,-8.70
2012,12,07,08,33,-8.70
2012,12,07,08,34,-8.70
2012,12,07,08,35,-8.70
2012,12,07,08,36,-8.70
2012,12,07,08,37,-8.70
2012,12,07,08,38,-8.70
2012,12,07,08,39,-8.70
2012,12,07,08,40,-8.70
2012,12,07,08,41,-8.70
2012,12,07,08,42,-8.70
2012,12,07,08,43,-8.70
2012,12,07,08,44,-8.60
2012,12,07,08,45,-8.60
2012,12,07,08,46,-8.60
2012,12,07,08,47,-8.60
2012,12,07,08,48,-8.60
2012,12,07,08,49,-8.60
2012,12,07,08,50,-8.60
2012,12,07,08,51,-8.60
2012,12,07,08,52,-8.60
2012,12,07,08,53,-8.60
2012,12,07,08,54,-8.60
2012,12,07,08,55,-8.60
2012,12,07,08,56,-8.60
2012,12,07,08,57,-8.60
2012,12,07,08,58,-8.60
2012,12,07,08,59,-8.60
2012,12,07,09,00,-8.60
2012,12,07,09,01,-8.60
2012,12,07,09,02,-8.60
2012,12,07,09,03,-8.60
2012,12,07,09,04,-8.60
2012,12,07,09,05,-8.60
2012,12,07,09,06,-8.60
2012,12,07,09,07,-8.60
2012,12,07,09,08,-8.60
2012,12,07,09,09,-8.60
2012,12,07,09,10,-8.60
2012,12,07,09,11,-8.60
2012,12,07,09,12,-8.60
2012,12,07,09,13,-8.60
2012,12,07,09,14,-8.60
2012,12,07,09,15,-8.60
2012,12,07,09,16,-8.60
2012,12,07,09,17,-8.60
2012,12,07,09,18,-8.60
2012,12,07,09,19,-8.60
2012,12,07,09,20,-8.60
2012,12,07,09,21,-8.60
2012,12,07,09,22,-8.60
2012,12,07,09,23,-8.60
2012,12,07,09,24,-8.60
2012,12,07,09,25,-8.60
2012,12,07,09,26,-8.60
2012,12,07,09,27,-8.60
2012,12,07,09,28,-8.60
2012,12,07,09,29,-8.60
2012,12,07,09,30,-8.60
2012,12,07,09,31,-8.60
2012,12,07,09,32,-8.60
2012,12,07,09,33,-8.50
2012,12,07,09,34,-8.50
2012,12,07,09,35,-8.50
2012,12,07,09,36,-8.50
2012,12,07,09,37,-8.50
2012,12,07,09,38,-8.50
2012,12,07,09,39,-8.50
2012,12,07,09,40,-8.60
2012,12,07,09,41,-8.50
2012,12,07,09,42,-8.50
2012,12,07,09,43,-8.50
2012,12,07,09,44,-8.50
2012,12,07,09,45,-8.50
2012,12,07,09,46,-8.50
2012,12,07,09,47,-8.50
2012,12,07,09,48,-8.50
2012,12,07,09,49,-8.50
2012,12,07,09,50,-8.50
2012,12,07,09,51,-8.50
2012,12,07,09,52,-8.50
2012,12,07,09,53,-8.50
2012,12,07,09,54,-8.50
2012,12,07,09,55,-8.50
2012,12,07,09,56,-8.50
2012,12,07,09,57,-8.40
2012,12,07,09,58,-8.40
2012,12,07,09,59,-8.50
2012,12,07,10,00,-8.40
2012,12,07,10,01,-8.40
2012,12,07,10,02,-8.50
2012,12,07,10,03,-8.40
2012,12,07,10,04,-8.40
2012,12,07,10,05,-8.40
2012,12,07,10,06,-8.40
2012,12,07,10,07,-8.40
2012,12,07,10,08,-8.40
2012,12,07,10,09,-8.40
2012,12,07,10,10,-8.40
2012,12,07,10,11,-8.40
2012,12,07,10,12,-8.40
2012,12,07,10,13,-8.40
2012,12,07,10,14,-8.40
2012,12,07,10,15,-8.40
2012,12,07,10,16,-8.40
2012,12,07,10,17,-8.40
2012,12,07,10,18,-8.40
2012,12,07,10,19,-8.40
2012,12,07,10,20,-8.40
2012,12,07,10,21,-8.40
2012,12,07,10,22,-8.40
2012,12,07,10,23,-8.40
2012,12,07,10,24,-8.40
2012,12,07,10,25,-8.40
2012,12,07,10,26,-8.30
2012,12,07,10,27,-8.30
2012,12,07,10,28,-8.30
2012,12,07,10,29,-8.30
2012,12,07,10,30,-8.30
2012,12,07,10,31,-8.30
2012,12,07,10,32,-8.30
2012,12,07,10,33,-8.30
2012,12,07,10,34,-8.30
2012,12,07,10,35,-8.30
2012,12,07,10,36,-8.30
2012,12,07,10,37,-8.30
2012,12,07,10,38,-8.30
2012,12,07,10,39,-8.30
2012,12,07,10,40,-8.30
2012,12,07,10,41,-8.30
2012,12,07,10,42,-8.30
2012,12,07,10,43,-8.20
2012,12,07,10,44,-8.30
2012,12,07,10,45,-8.30
2012,12,07,10,46,-8.20
2012,12,07,10,47,-8.20
2012,12,07,10,48,-8.20
2012,12,07,10,49,-8.20
2012,12,07,10,50,-8.20
2012,12,07,10,51,-8.20
2012,12,07,10,52,-8.20
2012,12,07,10,53,-8.20
2012,12,07,10,54,-8.20
2012,12,07,10,55,-8.20
2012,12,07,10,56,-8.10
2012,12,07,10,57,-8.10
2012,12,07,10,58,-8.10
2012,12,07,10,59,-8.10
2012,12,07,11,00,-8.10
2012,12,07,11,01,-8.10
2012,12,07,11,02,-8.20
2012,12,07,11,03,-8.20
2012,12,07,11,04,-8.10
2012,12,07,11,05,-8.20
2012,12,07,11,06,-8.10
2012,12,07,11,07,-8.10
2012,12,07,11,08,-8.10
2012,12,07,11,09,-8.10
2012,12,07,11,10,-8.10
2012,12,07,11,11,-8.10
2012,12,07,11,12,-8.10
2012,12,07,11,13,-8.10
2012,12,07,11,14,-8.10
2012,12,07,11,15,-8.10
2012,12,07,11,16,-8.10
2012,12,07,11,17,-8.10
2012,12,07,11,18,-8.10
2012,12,07,11,19,-8.10
2012,12,07,11,20,-8.00
2012,12,07,11,21,-8.00
2012,12,07,11,22,-8.00
2012,12,07,11,23,-8.00
2012,12,07,11,24,-8.00
2012,12,07,11,25,-8.00
2012,12,07,11,26,-8.00
2012,12,07,11,27,-8.00
2012,12,07,11,28,-8.00
2012,12,07,11,29,-8.00
2012,12,07,11,30,-7.90
2012,12,07,11,31,-7.90
2012,12,07,11,32,-7.90
2012,12,07,11,33,-7.90
2012,12,07,11,34,-7.90
2012,12,07,11,35,-7.90
2012,12,07,11,36,-7.90
2012,12,07,11,37,-7.90
2012,12,07,11,38,-7.90
2012,12,07,11,39,-7.90
2012,12,07,11,40,-7.90
2012,12,07,11,41,-7.90
2012,12,07,11,42,-7.90
2012,12,07,11,43,-7.90
2012,12,07,11,44,-7.90
2012,12,07,11,45,-7.90
2012,12,07,11,46,-7.90
2012,12,07,11,47,-7.90
2012,12,07,11,48,-7.90
2012,12,07,11,49,-7.90
2012,12,07,11,50,-7.90
2012,12,07,11,51,-7.90
2012,12,07,11,52,-7.90
2012,12,07,11,53,-7.90
2012,12,07,11,54,-7.90
2012,12,07,11,55,-7.90
2012,12,07,11,56,-7.90
2012,12,07,11,57,-7.90
2012,12,07,11,58,-7.90
2012,12,07,11,59,-7.90
2012,12,07,12,00,-7.80
2012,12,07,12,01,-7.80
2012,12,07,12,02,-7.80
2012,12,07,12,03,-7.80
2012,12,07,12,04,-7.80
2012,12,07,12,05,-7.80
2012,12,07,12,06,-7.80
2012,12,07,12,07,-7.80
2012,12,07,12,08,-7.80
2012,12,07,12,09,-7.80
2012,12,07,12,10,-7.80
2012,12,07,12,11,-7.80
2012,12,07,12,12,-7.80
2012,12,07,12,13,-7.80
2012,12,07,12,14,-7.80
2012,12,07,12,15,-7.70
2012,12,07,12,16,-7.70
2012,12,07,12,17,-7.80
2012,12,07,12,18,-7.80
2012,12,07,12,19,-7.80
2012,12,07,12,20,-7.70
2012,12,07,12,21,-7.70
2012,12,07,12,22,-7.70
2012,12,07,12,23,-7.70
2012,12,07,12,24,-7.70
2012,12,07,12,25,-7.70
2012,12,07,12,26,-7.70
2012,12,07,12,27,-7.70
2012,12,07,12,28,-7.70
2012,12,07,12,29,-7.70
2012,12,07,12,30,-7.60
2012,12,07,12,31,-7.60
2012,12,07,12,32,-7.60
2012,12,07,12,33,-7.60
2012,12,07,12,34,-7.60
2012,12,07,12,35,-7.60
2012,12,07,12,36,-7.60
2012,12,07,12,37,-7.60
2012,12,07,12,38,-7.60
2012,12,07,12,39,-7.60
2012,12,07,12,40,-7.60
2012,12,07,12,41,-7.60
2012,12,07,12,42,-7.60
2012,12,07,12,43,-7.60
2012,12,07,12,44,-7.60
2012,12,07,12,45,-7.60
2012,12,07,12,46,-7.60
2012,12,07,12,47,-7.60
2012,12,07,12,48,-7.60
2012,12,07,12,49,-7.60
2012,12,07,12,50,-7.60
2012,12,07,12,51,-7.60
2012,12,07,12,52,-7.60
2012,12,07,12,53,-7.60
2012,12,07,12,54,-7.60
2012,12,07,12,55,-7.60
2012,12,07,12,56,-7.50
2012,12,07,12,57,-7.50
2012,12,07,12,58,-7.50
2012,12,07,12,59,-7.50
2012,12,07,13,00,-7.50
2012,12,07,13,01,-7.50
2012,12,07,13,02,-7.50
2012,12,07,13,03,-7.50
2012,12,07,13,04,-7.50
2012,12,07,13,05,-7.50
2012,12,07,13,06,-7.50
2012,12,07,13,07,-7.50
2012,12,07,13,08,-7.50
2012,12,07,13,09,-7.50
2012,12,07,13,10,-7.50
2012,12,07,13,11,-7.50
2012,12,07,13,12,-7.50
2012,12,07,13,13,-7.50
2012,12,07,13,14,-7.50
2012,12,07,13,15,-7.50
2012,12,07,13,16,-7.50
2012,12,07,13,17,-7.50
2012,12,07,13,18,-7.50
2012,12,07,13,19,-7.50
2012,12,07,13,20,-7.50
2012,12,07,13,21,-7.50
2012,12,07,13,22,-7.50
2012,12,07,13,23,-7.40
2012,12,07,13,24,-7.40
2012,12,07,13,25,-7.40
2012,12,07,13,26,-7.40
2012,12,07,13,27,-7.40
2012,12,07,13,28,-7.40
2012,12,07,13,29,-7.40
2012,12,07,13,30,-7.40
2012,12,07,13,31,-7.40
2012,12,07,13,32,-7.30
2012,12,07,13,33,-7.40
2012,12,07,13,34,-7.40
2012,12,07,13,35,-7.40
2012,12,07,13,36,-7.40
2012,12,07,13,37,-7.40
2012,12,07,13,38,-7.30
2012,12,07,13,39,-7.30
2012,12,07,13,40,-7.30
2012,12,07,13,41,-7.30
2012,12,07,13,42,-7.30
2012,12,07,13,43,-7.30
2012,12,07,13,44,-7.30
2012,12,07,13,45,-7.30
2012,12,07,13,46,-7.30
2012,12,07,13,47,-7.30
2012,12,07,13,48,-7.30
2012,12,07,13,49,-7.30
2012,12,07,13,50,-7.30
2012,12,07,13,51,-7.30
2012,12,07,13,52,-7.30
2012,12,07,13,53,-7.30
2012,12,07,13,54,-7.20
2012,12,07,13,55,-7.20
2012,12,07,13,56,-7.20
2012,12,07,13,57,-7.20
2012,12,07,13,58,-7.20
2012,12,07,13,59,-7.20
2012,12,07,14,00,-7.20
2012,12,07,14,01,-7.20
2012,12,07,14,02,-7.20
2012,12,07,14,03,-7.10
2012,12,07,14,04,-7.10
2012,12,07,14,05,-7.10
2012,12,07,14,06,-7.10
2012,12,07,14,07,-7.10
2012,12,07,14,08,-7.10
2012,12,07,14,09,-7.10
2012,12,07,14,10,-7.10
2012,12,07,14,11,-7.10
2012,12,07,14,12,-7.10
2012,12,07,14,13,-7.10
2012,12,07,14,14,-7.10
2012,12,07,14,15,-7.10
2012,12,07,14,16,-7.10
2012,12,07,14,17,-7.10
2012,12,07,14,18,-7.10
2012,12,07,14,19,-7.10
2012,12,07,14,20,-7.10
2012,12,07,14,21,-7.10
2012,12,07,14,22,-7.10
2012,12,07,14,23,-7.10
2012,12,07,14,24,-7.10
2012,12,07,14,25,-7.10
2012,12,07,14,26,-7.10
2012,12,07,14,27,-7.10
2012,12,07,14,28,-7.00
2012,12,07,14,29,-7.00
2012,12,07,14,30,-7.00
2012,12,07,14,31,-7.00
2012,12,07,14,32,-7.00
2012,12,07,14,33,-7.00
2012,12,07,14,34,-7.00
2012,12,07,14,35,-7.00
2012,12,07,14,36,-7.00
2012,12,07,14,37,-7.00
2012,12,07,14,38,-7.00
2012,12,07,14,39,-7.00
2012,12,07,14,40,-7.00
2012,12,07,14,41,-7.00
2012,12,07,14,42,-7.00
2012,12,07,14,43,-7.00
2012,12,07,14,44,-7.00
2012,12,07,14,45,-7.00
2012,12,07,14,46,-7.00
2012,12,07,14,47,-7.00
2012,12,07,14,48,-7.00
2012,12,07,14,49,-7.00
2012,12,07,14,50,-7.00
2012,12,07,14,51,-6.90
2012,12,07,14,52,-7.00
2012,12,07,14,53,-6.90
2012,12,07,14,54,-6.90
2012,12,07,14,55,-6.90
2012,12,07,14,56,-6.90
2012,12,07,14,57,-6.90
2012,12,07,14,58,-6.90
2012,12,07,14,59,-6.90
2012,12,07,15,00,-6.90
2012,12,07,15,01,-6.90
2012,12,07,15,02,-6.90
2012,12,07,15,03,-6.90
2012,12,07,15,04,-6.90
2012,12,07,15,05,-6.90
2012,12,07,15,06,-6.90
2012,12,07,15,07,-7.00
2012,12,07,15,08,-7.00
2012,12,07,15,09,-7.00
2012,12,07,15,10,-7.00
2012,12,07,15,11,-7.00
2012,12,07,15,12,-7.00
2012,12,07,15,13,-7.00
2012,12,07,15,14,-7.00
2012,12,07,15,15,-7.00
2012,12,07,15,16,-7.00
2012,12,07,15,17,-7.00
2012,12,07,15,18,-7.00
2012,12,07,15,19,-7.00
2012,12,07,15,20,-7.00
2012,12,07,15,21,-7.00
2012,12,07,15,22,-7.00
2012,12,07,15,23,-7.00
2012,12,07,15,24,-7.00
2012,12,07,15,25,-7.00
2012,12,07,15,26,-7.00
2012,12,07,15,27,-7.00
2012,12,07,15,28,-7.00
2012,12,07,15,29,-7.00
2012,12,07,15,30,-7.00
2012,12,07,15,31,-7.00
2012,12,07,15,32,-7.00
2012,12,07,15,33,-7.00
2012,12,07,15,34,-7.00
2012,12,07,15,35,-7.00
2012,12,07,15,36,-7.00
2012,12,07,15,37,-7.00
2012,12,07,15,38,-7.00
2012,12,07,15,39,-7.00
2012,12,07,15,40,-7.00
2012,12,07,15,41,-7.00
2012,12,07,15,42,-7.00
2012,12,07,15,43,-7.00
2012,12,07,15,44,-7.10
2012,12,07,15,45,-7.10
2012,12,07,15,46,-7.10
2012,12,07,15,47,-7.10
2012,12,07,15,48,-7.10
2012,12,07,15,49,-7.10
2012,12,07,15,50,-7.10
2012,12,07,15,51,-7.10
2012,12,07,15,52,-7.10
2012,12,07,15,53,-7.10
2012,12,07,15,54,-7.10
2012,12,07,15,55,-7.10
2012,12,07,15,56,-7.10
2012,12,07,15,57,-7.10
2012,12,07,15,58,-7.10
2012,12,07,15,59,-7.20
2012,12,07,16,00,-7.20
2012,12,07,16,01,-7.20
2012,12,07,16,02,-7.20
2012,12,07,16,03,-7.20
2012,12,07,16,04,-7.20
2012,12,07,16,05,-7.20
2012,12,07,16,06,-7.20
2012,12,07,16,07,-7.20
2012,12,07,16,08,-7.30
2012,12,07,16,09,-7.30
2012,12,07,16,10,-7.30
2012,12,07,16,11,-7.30
2012,12,07,16,12,-7.30
2012,12,07,16,13,-7.30
2012,12,07,16,14,-7.30
2012,12,07,16,15,-7.30
2012,12,07,16,16,-7.30
2012,12,07,16,17,-7.30
2012,12,07,16,18,-7.40
2012,12,07,16,19,-7.40
2012,12,07,16,20,-7.40
2012,12,07,16,21,-7.40
2012,12,07,16,22,-7.40
2012,12,07,16,23,-7.50
2012,12,07,16,24,-7.50
2012,12,07,16,25,-7.50
2012,12,07,16,26,-7.50
2012,12,07,16,27,-7.50
2012,12,07,16,28,-7.50
2012,12,07,16,29,-7.50
2012,12,07,16,30,-7.60
2012,12,07,16,31,-7.60
2012,12,07,16,32,-7.60
2012,12,07,16,33,-7.60
2012,12,07,16,34,-7.60
2012,12,07,16,35,-7.60
2012,12,07,16,36,-7.60
2012,12,07,16,37,-7.70
2012,12,07,16,38,-7.70
2012,12,07,16,39,-7.70
2012,12,07,16,40,-7.70
2012,12,07,16,41,-7.70
2012,12,07,16,42,-7.70
2012,12,07,16,43,-7.70
2012,12,07,16,44,-7.70
2012,12,07,16,45,-7.70
2012,12,07,16,46,-7.70
2012,12,07,16,47,-7.80
2012,12,07,16,48,-7.70
2012,12,07,16,49,-7.80
2012,12,07,16,50,-7.80
2012,12,07,16,51,-7.80
2012,12,07,16,52,-7.80
2012,12,07,16,53,-7.80
2012,12,07,16,54,-7.80
2012,12,07,16,55,-7.90
2012,12,07,16,56,-7.90
2012,12,07,16,57,-7.90
2012,12,07,16,58,-7.90
2012,12,07,16,59,-7.90
2012,12,07,17,00,-7.90
2012,12,07,17,01,-7.90
2012,12,07,17,02,-7.90
2012,12,07,17,03,-7.90
2012,12,07,17,04,-7.90
2012,12,07,17,05,-7.90
2012,12,07,17,06,-7.90
2012,12,07,17,07,-8.00
2012,12,07,17,08,-8.00
2012,12,07,17,09,-8.00
2012,12,07,17,10,-8.00
2012,12,07,17,11,-8.00
2012,12,07,17,12,-8.00
2012,12,07,17,13,-8.00